Regional Weather Roundup
Issued by NWS Wilmington, NC

Home | Current Version | Previous Version | Text Only | Print | Product List | Glossary On
Versions: 1 2 3 4 5 6 7 8 9 10 11 12 13 14 15 16 17 18 19 20 21 22 23 24 25 26 27 28 29 30 31 32 33 34 35 36 37 38 39 40 41 42 43 44 45 46 47 48 49 50
429
ASUS42 KILM 261813
RWRILM
RWRILM
REGIONAL HOURLY WEATHER ROUNDUP
NATIONAL WEATHER SERVICE WILMINGTON NC
200 PM EDT THU APR 26 2018

NOTE: "FAIR" INDICATES FEW OR NO CLOUDS BELOW 12,000 FEET WITH NO
SIGNIFICANT WEATHER AND/OR OBSTRUCTIONS TO VISIBILITY.

...............WFO WILMINGTON COUNTY WARNING AREA...............

......COASTAL NC AND SC COUNTIES......

CITY           SKY/WX    TMP DP  RH WIND       PRES   REMARKS
WILMINGTON     FAIR      76  57  51 S13G21    29.87S
N MYRTLE BEACH FAIR      71  61  70 VRB7      29.87F
MYRTLE BEACH   FAIR      71  61  70 S10       29.88F

......INLAND NC AND SC COUNTIES.......

CITY           SKY/WX    TMP DP  RH WIND       PRES   REMARKS
LUMBERTON      FAIR      76  57  51 CALM      29.84F
ELIZABETHTOWN  PTSUNNY   77  56  48 MISG      29.86S
WHITEVILLE     PTSUNNY   78  56  48 S9        29.85S
FLORENCE       PTSUNNY   77  57  50 S7        29.84F
DARLINGTON     FAIR      74  57  55 S5        29.85F
KINGSTREE      FAIR      75  52  43 SW8       29.84F
HARTSVILLE     PTSUNNY   73  54  49 SW6       29.85S
BENNETTSVILLE  FAIR      77  55  47 CALM      29.85F
CONWAY         FAIR      75  59  57 S8        29.86S
GEORGETOWN     FAIR      73  55  53 S12G20    29.87S
MARION         CLOUDY    73  55  53 S6        29.84F

....................REST OF NORTH CAROLINA......................

.........EASTERN NC.........

CITY           SKY/WX    TMP DP  RH WIND       PRES   REMARKS
CAPE HATTERAS  FAIR      71  59  65 E12       29.91S
JACKSONVILLE   CLOUDY    76  58  53 SE12      29.87F
MOREHEAD CITY  FAIR      73  60  63 S10       29.89S
KENANSVILLE    CLOUDY    75  55  50 SW7       29.86F
NEW BERN       CLOUDY    73  60  63 NE3       29.88F
ELIZABETH CITY FAIR      71  57  61 SE12      29.89F

.........CENTRAL NC.........

CITY           SKY/WX    TMP DP  RH WIND       PRES   REMARKS
RALEIGH DURHAM PTSUNNY   72  55  55 SW8       29.88F
ROCKY MOUNT    CLOUDY    72  55  55 CALM      29.87F
ROANOKE RAPIDS NOT AVBL
FAYETTEVILLE   FAIR      74  53  48 CALM      29.85F
HOFFMAN        PTSUNNY   72  54  52 SE6       29.86F

.........WESTERN NC.........

CITY           SKY/WX    TMP DP  RH WIND       PRES   REMARKS
CHARLOTTE      PTSUNNY   70  52  52 VRB5      29.86F
GREENSBORO     CLOUDY    67  47  48 CALM      29.87F
HICKORY        NOT AVBL
BOONE          NOT AVBL
ASHEVILLE      NOT AVBL

.....................REST OF SOUTH CAROLINA.....................

.........EASTERN SC.........

CITY           SKY/WX    TMP DP  RH WIND       PRES   REMARKS
CHARLESTON     FAIR      77  57  50 S10G18    29.85F
BEAUFORT MCAS  FAIR      77  56  48 SW10G18   29.86
HILTON HEAD    MOSUNNY   72  57  60 S9        29.88F

.........CENTRAL SC.........

CITY           SKY/WX    TMP DP  RH WIND       PRES   REMARKS
COLUMBIA       PTSUNNY   75  57  53 VRB7      29.83F
ORANGEBURG     FAIR      72  54  53 SW5       29.85F
SUMTER SHAW    CLOUDY    75  54  48 S8        29.82

.........WESTERN SC.........

CITY           SKY/WX    TMP DP  RH WIND       PRES   REMARKS
GREENVILLE     NOT AVBL
ROCK HILL      CLOUDY    69  54  58 VRB5      29.86F
ANDERSON       CLOUDY    68  53  58 SW6       29.85F
CLEMSON        NOT AVBL
GREENWOOD      PTSUNNY   69  55  60 VRB5      29.86F


...................COASTAL AND OFFSHORE REPORTS..................

................LOCAL PIERS AND NC RESERVE................


STATION/POSITION TIME  SKY/WX   TEMP    WIND        PRES    VSBY
                                AIR SEA DIR/SP/G
                 (UTC)          (F)     (DEG/KT/KT) (MB)    (MI)
JOHNY MRCER PIER 1748            66 66  130/ 10/ 12 1012.2F
NC RESRV MASNBRO NOT AVBL
OCEAN CREST PIER NOT AVBL
SPRINGMAID  PIER 1748                               1014.9F


................COASTAL AND OFFSHORE BUOYS................


STATION/POSITION TIME  SKY/WX   TEMP    WIND        PRES    VSBY
                                AIR SEA DIR/SP/G
                 (UTC)          (F)     (DEG/KT/KT) (MB)    (MI)
DIMNDSHOAL 41025 1800            68 71   50/  6/  8 1012.9
CAPE LOOKOUT     1800                   130/  8/  9 1012.8R
ONSLOW BAY 41036 NOT AVBL
ONSLOW BAY 41064 1708            68 67  130/  6/  8 1010.9R
ONSLOW BAY 41159 1730               68                N/A
WVE H/P(F/S)=  4/ 9 SWL H/P/D(F/S/D)=  2/100/11

MASNBO INL 41110 1730               65                N/A
WVE H/P(F/S)=  3/ 9

WILM HARBR 41108 1750               66                N/A
WVE H/P(F/S)=  3/ 9

27SE WRITB 41037 1708            68 66  130/  6/  8 1012.5R
FRYING PAN 41013 1800            72 71  190/ 10/ 14 1012.0
SUNST NRSH 41024 1708            65 65  170/ 12/ 16 1011.8F
CAPRS NRSH 41029 1708            67 66  220/ 12/ 14 1012.3F
EDISTO     41004 1750               70  200/  8/ 10 1012.1F
WVE H/P(F/S)=  3/ 9 SWL H/P/D(F/S/D)=  3/120/ 9



..........OFFSHORE BUOYS BEYOND 100 NM OFFSHORE...........
.....IN A TRIANGLE---HAT TO BERMUDA TO BAHAMAS TO HAT.....


STATION/POSITION TIME  SKY/WX   TEMP    WIND        PRES    VSBY
                                AIR SEA DIR/SP/G
                 (UTC)          (F)     (DEG/KT/KT) (MB)    (MI)
150E HAT   41001 NOT AVBL
W BERMUDA  41048 1750               72  230/  6/  8 1015.9F
WVE H/P(F/S)=  6/ 8 SWL H/P/D(F/S/D)=  5/130/ 8

ATLANTIC S 41049 1750               77  150/  8/ 10 1020.7F
WVE H/P(F/S)=  6/ 8 SWL H/P/D(F/S/D)=  5/ 80/ 8

E BAHAMAS  41046 1800               80  120/ 10/ 12 1017.4
NE BAHAMAS 41047 1750                   180/  8/ 10 1016.7F
WVE H/P(F/S)=  5/ 8 SWL H/P/D(F/S/D)=  5/110/ 8

120E CANVRL41010 1750            75 76  210/ 12/ 16 1013.9F
WVE H/P(F/S)=  5/ 8 SWL H/P/D(F/S/D)=  5/ 70/ 8


END




USA.gov is the U.S. government's official web portal to all federal, state and local government web resources and services.